Bei Facebook empfehlenBei Twitter postenGoogle plusPinterest

Das Wetter im Erzgebirge am 04.01.2015

Wetter und Klima am 04.01.2015 Holzhau im Erzgebirge (630m ü.NN)
Letzte gemessene Temperatur und Uhrzeit der Messung23:45:00 Uhr-1.10 °C
Temperatur (Maximum / Höchstwert) und Uhrzeit der Messung13:45:00 Uhr0.50 °C
Temperatur (Minimum / Tiefstwert) und Uhrzeit der Messung23:45:00-1.10 °C
Errechneter Absolutwert der Temperaturschwankungen zwischen Tmin und Tmax des Tages1.60 K
Errechnete Tagesmitteltemperatur-0.51875 °C
Gesamt - Niederschlag des Tages (in flüssiger Form)0.00 Liter / m²
Luftdruck (Maximum / Höchstwert) und Zeitpunkt der Messung23:45:00 Uhr1024.70 hPa
Luftdruck (Minimum / Tiefstwert) und Zeitpunkt der Messung00:15:00 Uhr1011.00 hPa
Errechneter Absolutwert der Luftdruckschwankungen des Tages13.70 hPa
Höchste gemessene Windgeschwindigkeit und Uhrzeit der Messung11:30:00 Uhr19.44 km/h
Errechnete Windhäufigkeit in Relation zu den Messwerten des Tages35.41667 %
Niedrigste Windkühle (Windchill) und Zeitpunkt der Messung20:45:00 Uhr-5.80 °C
Taupunkt (Maximum / Höchstwert) und Uhrzeit der Messung13:45:00 Uhr-0.80 °C
Taupunkt (Minimum / Tiefstwert) und Uhrzeit der Messung23:45:00-2.50 °C
Anzahl der automatisch eingelesenen Messwerte 96

Detaillierte Wetter- und Klima- Messwerte für den 04.01.2015 in Holzhau im Erzgebirge (630m ü.NN)
ZeitTemperaturLuftdruckRel. LuftfeuchteWindWindrichtungWindchillTaupunktNiederschlag l/m²
23:45:00-1.10 °C1024.70 hPa91.00 %-2.50 °C 
23:30:00-1.10 °C1024.70 hPa91.00 %-2.50 °C 
23:15:00-1.10 °C1024.70 hPa91.00 %-2.50 °C 
23:00:00-1.10 °C1024.60 hPa91.00 %-2.50 °C 
22:45:00-1.00 °C1024.60 hPa92.00 %-2.30 °C 
22:30:00-0.90 °C1024.50 hPa92.00 %-2.20 °C 
22:15:00-0.80 °C1024.30 hPa92.00 %-2.10 °C 
22:00:00-0.70 °C1024.00 hPa92.00 %-2.00 °C 
21:45:00-0.70 °C1023.70 hPa92.00 %-2.00 °C 
21:30:00-0.70 °C1023.60 hPa92.00 %4.32 km/hW-0.70 °C-2.00 °C 
21:15:00-0.70 °C1023.50 hPa92.00 %6.84 km/hWNW-3.20 °C-2.00 °C 
21:00:00-0.60 °C1023.30 hPa92.00 %9.00 km/hNNW-3.80 °C-1.90 °C 
20:45:00-0.60 °C1023.20 hPa92.00 %18.72 km/hWNW-5.80 °C-1.90 °C 
20:30:00-0.60 °C1023.10 hPa92.00 %-1.90 °C 
20:15:00-0.50 °C1022.90 hPa92.00 %6.84 km/hWNW-2.90 °C-1.80 °C 
20:00:00-0.50 °C1022.60 hPa92.00 %8.64 km/hW-3.50 °C-1.80 °C 
19:45:00-0.60 °C1022.50 hPa93.00 %4.68 km/hNNW-0.60 °C-1.70 °C 
19:30:00-0.70 °C1022.10 hPa92.00 %-2.00 °C 
19:15:00-0.70 °C1021.90 hPa92.00 %-2.00 °C 
19:00:00-0.70 °C1021.80 hPa92.00 %-2.00 °C 
18:45:00-0.60 °C1021.80 hPa92.00 %-1.90 °C 
18:30:00-0.60 °C1021.60 hPa92.00 %-1.90 °C 
18:15:00-0.60 °C1021.50 hPa92.00 %-1.90 °C 
18:00:00-0.60 °C1021.60 hPa91.00 %-2.00 °C 
17:45:00-0.50 °C1021.30 hPa91.00 %-1.90 °C 
17:30:00-0.50 °C1021.30 hPa91.00 %-1.90 °C 
17:15:00-0.50 °C1021.20 hPa91.00 %-1.90 °C 
17:00:00-0.50 °C1021.20 hPa91.00 %-1.90 °C 
16:45:00-0.40 °C1021.00 hPa91.00 %-1.80 °C 
16:30:00-0.40 °C1020.90 hPa91.00 %-1.80 °C 
16:15:00-0.20 °C1020.90 hPa91.00 %-1.60 °C 
16:00:00-0.20 °C1020.80 hPa92.00 %-1.50 °C 
15:45:00-0.40 °C1020.50 hPa91.00 %-1.80 °C 
15:30:00-0.40 °C1020.60 hPa91.00 %-1.80 °C 
15:15:00-0.20 °C1020.40 hPa91.00 %-1.60 °C 
15:00:00-0.20 °C1020.40 hPa91.00 %-1.60 °C 
14:45:00-0.10 °C1020.20 hPa91.00 %-1.50 °C 
14:30:00-0.10 °C1019.90 hPa90.00 %5.40 km/hNW-1.90 °C-1.70 °C 
14:15:000.20 °C1019.70 hPa91.00 %-1.10 °C 
14:00:000.40 °C1019.60 hPa91.00 %5.76 km/hW-1.50 °C-0.90 °C 
13:45:000.50 °C1019.60 hPa91.00 %-0.80 °C 
13:30:000.40 °C1019.40 hPa91.00 %-0.90 °C 
13:15:000.30 °C1019.40 hPa91.00 %-1.00 °C 
13:00:000.40 °C1019.50 hPa91.00 %-0.90 °C 
12:45:000.30 °C1019.40 hPa91.00 %0.72 km/hW0.30 °C-1.00 °C 
12:30:000.10 °C1019.50 hPa91.00 %6.84 km/hWSW-2.20 °C-1.20 °C 
12:15:00-0.10 °C1019.40 hPa92.00 %-1.40 °C 
12:00:00-0.20 °C1019.40 hPa92.00 %-1.50 °C 
11:45:000.00 °C1019.50 hPa92.00 %-1.30 °C 
11:30:000.10 °C1019.20 hPa93.00 %19.44 km/hWNW-5.00 °C-0.90 °C 
11:15:00-0.20 °C1019.00 hPa93.00 %11.16 km/hNW-3.80 °C-1.30 °C 
11:00:00-0.40 °C1019.00 hPa94.00 %-1.30 °C 
10:45:00-0.40 °C1018.70 hPa94.00 %-1.30 °C 
10:30:00-0.40 °C1018.50 hPa94.00 %11.16 km/hNW-4.10 °C-1.30 °C 
10:15:00-0.40 °C1018.30 hPa94.00 %8.28 km/hNW-3.30 °C-1.30 °C 
10:00:00-0.40 °C1018.00 hPa94.00 %5.04 km/hNNW-2.10 °C-1.30 °C 
09:45:00-0.50 °C1017.80 hPa94.00 %7.92 km/hW-3.30 °C-1.40 °C 
09:30:00-0.50 °C1017.70 hPa94.00 %-1.40 °C 
09:15:00-0.60 °C1017.30 hPa94.00 %8.64 km/hWNW-3.60 °C-1.50 °C 
09:00:00-0.60 °C1017.30 hPa94.00 %-1.50 °C 
08:45:00-0.70 °C1017.10 hPa93.00 %-1.80 °C 
08:30:00-0.70 °C1016.90 hPa93.00 %-1.80 °C 
08:15:00-0.70 °C1016.70 hPa93.00 %-1.80 °C 
08:00:00-0.70 °C1016.40 hPa93.00 %6.84 km/hNNW-3.20 °C-1.80 °C 
07:45:00-0.70 °C1016.40 hPa93.00 %8.64 km/hW-3.80 °C-1.80 °C 
07:30:00-0.70 °C1016.40 hPa93.00 %-1.80 °C 
07:15:00-0.70 °C1016.20 hPa93.00 %-1.80 °C 
07:00:00-0.70 °C1015.90 hPa93.00 %10.44 km/hNNW-4.30 °C-1.80 °C 
06:45:00-0.70 °C1015.70 hPa93.00 %-1.80 °C 
06:30:00-0.70 °C1015.50 hPa93.00 %-1.80 °C 
06:15:00-0.60 °C1015.20 hPa94.00 %-1.50 °C 
06:00:00-0.70 °C1015.40 hPa93.00 %-1.80 °C 
05:45:00-0.70 °C1015.10 hPa93.00 %-1.80 °C 
05:30:00-0.70 °C1014.80 hPa93.00 %-1.80 °C 
05:15:00-0.70 °C1015.00 hPa93.00 %-1.80 °C 
05:00:00-0.70 °C1014.60 hPa93.00 %8.28 km/hWNW-3.70 °C-1.80 °C 
04:45:00-0.60 °C1014.60 hPa93.00 %5.40 km/hWNW-2.50 °C-1.70 °C 
04:30:00-0.60 °C1014.30 hPa93.00 %-1.70 °C 
04:15:00-0.70 °C1014.40 hPa93.00 %-1.80 °C 
04:00:00-0.70 °C1014.10 hPa93.00 %-1.80 °C 
03:45:00-0.70 °C1014.10 hPa93.00 %7.20 km/hN-3.30 °C-1.80 °C 
03:30:00-0.70 °C1014.10 hPa93.00 %6.12 km/hNNW-2.90 °C-1.80 °C 
03:15:00-0.80 °C1013.60 hPa93.00 %5.76 km/hWNW-2.80 °C-1.90 °C 
03:00:00-0.80 °C1013.60 hPa93.00 %5.40 km/hNNW-2.70 °C-1.90 °C 
02:45:00-0.70 °C1013.40 hPa93.00 %-1.80 °C 
02:30:00-0.70 °C1013.30 hPa93.00 %-1.80 °C 
02:15:00-0.70 °C1013.00 hPa93.00 %3.24 km/hNW-0.70 °C-1.80 °C 
02:00:00-0.70 °C1012.60 hPa93.00 %-1.80 °C 
01:45:00-0.70 °C1012.10 hPa93.00 %11.16 km/hN-4.40 °C-1.80 °C 
01:30:00-0.70 °C1011.80 hPa93.00 %3.96 km/hW-0.70 °C-1.80 °C 
01:15:00-0.80 °C1011.60 hPa93.00 %5.40 km/hWNW-2.70 °C-1.90 °C 
01:00:00-0.80 °C1011.30 hPa93.00 %-1.90 °C 
00:45:00-0.80 °C1011.20 hPa93.00 %-1.90 °C 
00:30:00-0.70 °C1011.30 hPa93.00 %7.92 km/hWNW-3.50 °C-1.80 °C 
00:15:00-0.70 °C1011.00 hPa93.00 %10.08 km/hWNW-4.20 °C-1.80 °C 
00:00:00-0.70 °C1011.10 hPa93.00 %3.24 km/hNW-0.70 °C-1.80 °C 

Permanenter Link zu dieser Seite: Wetter im Erzgebirge am 04.01.2015
Performance-Info: Die Erstellung der Seite / Statistik(en) / Tabelle(n) erforderte 5 Datenbankserver-Abfrage(n) und dauerte 98 Millisekunden. (Dieser Messwert ist von der Gesamt-Auslastung des Servers abhängig.)
Erzgebirge - Wetter | Erzgebirge - Wetter (Mobilgeräte) | Komplette Klimadatenbank